Weather History for KEBG - May, 2013

Change the Weather History Date:

Friday, May 3, 2013

  Actual Average (KMFE) Record (KMFE)
Temperature  
Mean Temperature 66 °F 79 °F  
Max Temperature 75 °F 89 °F 104 °F (1984)
Min Temperature 57 °F 70 °F 51 °F (2004)
Degree Days  
Heating Degree Days 0 0  
Month to date heating degree days 0  
Since 1 July heating degree days 579  
Cooling Degree Days 1 14  
Month to date cooling degree days 42  
Year to date cooling degree days 773  
Growing Degree Days 16 (Base 50)    
Moisture  
Dew Point 28 °F    
Average Humidity 28    
Maximum Humidity 57    
Minimum Humidity 11    
Precipitation  
Precipitation 0.00 in 0.06 in 4.30 in (1981)
Month to date precipitation 0.19  
Year to date precipitation 4.72  
Sea Level Pressure  
Sea Level Pressure 30.24 in    
Wind  
Wind Speed 19 mph (NNW)    
Max Wind Speed 29 mph    
Max Gust Speed 38 mph    
Visibility 6 miles    
Events      
T = Trace of Precipitation, MM = Missing Value Source: NWS Daily Summary

Daily Weather History Graph

Daily Weather History Graph

Search for Another Location

Airport or City:

Trip Planner

Search our weather history database for the weather conditions in past years. The results will help you decide how hot, cold, wet, or windy it might be!

Date:

Astronomy

May. 03, 2013 Rise Set
Actual Time 6:53 AM CDT 8:05 PM CDT
Civil Twilight 6:28 AM CDT 8:30 PM CDT
Nautical Twilight 5:59 AM CDT 8:59 PM CDT
Astronomical Twilight 5:29 AM CDT 9:29 PM CDT
Moon 2:42 AM CDT (5/3) 2:35 PM CDT (5/3)
Length of Visible Light 14h 01m
Length of Day
13h 12m
Last Quarter, 37% of the Moon is Illuminated
May 3
Last Quarter
May 9
New
May 17
First Quarter
May 24
Full
May 31
Last Quarter

Hourly Weather History & Observations

Time (CDT) Temp. Dew Point Humidity Pressure Visibility Wind Dir Wind Speed Gust Speed Precip Events Conditions
12:15 AM 64.4 °F 43.3 °F 46% 30.26 in 7.0 mi NNW 23.0 mph 31.1 mph N/A   Overcast
12:35 AM 63.5 °F 44.1 °F 49% 30.27 in 10.0 mi NNW 21.9 mph 26.5 mph N/A   Overcast
12:55 AM 63.5 °F 41.9 °F 45% 30.28 in 5.0 mi NNW 25.3 mph 32.2 mph N/A   Haze
1:15 AM 62.2 °F 41.7 °F 47% 30.28 in 4.0 mi NNW 24.2 mph 34.5 mph N/A   Haze
1:35 AM 61.7 °F 41.9 °F 48% 30.27 in 7.0 mi NNW 26.5 mph 33.4 mph N/A   Overcast
1:55 AM 61.2 °F 41.0 °F 47% 30.26 in 7.0 mi NNW 24.2 mph 32.2 mph N/A   Overcast
2:15 AM 60.8 °F 40.3 °F 47% 30.27 in 7.0 mi NNW 26.5 mph 32.2 mph N/A   Overcast
2:35 AM 60.1 °F 39.2 °F 46% 30.28 in 5.0 mi NNW 25.3 mph 33.4 mph N/A   Haze
2:55 AM 59.5 °F 39.2 °F 47% 30.28 in 5.0 mi NNW 21.9 mph 26.5 mph N/A   Haze
3:55 AM - - N/A% 30.29 in 5.0 mi NNW 23.0 mph 29.9 mph N/A   Haze
4:15 AM 58.8 °F 35.6 °F 42% - - NNW 20.7 mph 28.8 mph N/A   Unknown
4:35 AM 58.8 °F 36.3 °F 43% 30.29 in 7.0 mi NNW 16.1 mph 27.6 mph N/A   Overcast
4:55 AM 59.0 °F 35.6 °F 42% 30.29 in 7.0 mi NNW 26.5 mph 32.2 mph N/A   Overcast
5:15 AM 58.6 °F 34.2 °F 40% 30.27 in 5.0 mi North 28.8 mph 34.5 mph N/A   Haze
5:35 AM 59.0 °F 33.4 °F 38% 30.28 in 5.0 mi North 23.0 mph 38.0 mph N/A   Haze
5:55 AM 59.0 °F 33.6 °F 38% 30.29 in 5.0 mi NNW 21.9 mph 32.2 mph N/A   Haze
6:15 AM 59.0 °F 32.7 °F 37% 30.29 in 7.0 mi NNW 23.0 mph 32.2 mph N/A   Overcast
6:35 AM 58.3 °F 32.9 °F 38% 30.31 in 7.0 mi NNW 21.9 mph 28.8 mph N/A   Mostly Cloudy
6:55 AM 57.7 °F 32.0 °F 38% 30.31 in 7.0 mi NNW 19.6 mph 25.3 mph N/A   Scattered Clouds
7:15 AM 57.7 °F 31.8 °F 37% 30.33 in 5.0 mi NNW 18.4 mph 24.2 mph N/A   Haze
7:35 AM 58.5 °F 30.0 °F 34% 30.34 in 5.0 mi NNW 21.9 mph 31.1 mph N/A   Haze
7:55 AM 58.8 °F 29.3 °F 33% 30.35 in 7.0 mi NNW 21.9 mph 32.2 mph N/A   Scattered Clouds
8:15 AM 59.5 °F 29.3 °F 32% 30.36 in 7.0 mi NNW 24.2 mph 29.9 mph N/A   Clear
8:35 AM 60.1 °F 28.0 °F 30% 30.37 in 5.0 mi NNW 23.0 mph 29.9 mph N/A   Haze
8:55 AM 60.3 °F 26.2 °F 27% 30.37 in 5.0 mi NNW 21.9 mph 31.1 mph N/A   Haze
9:15 AM 61.5 °F 25.2 °F 25% 30.37 in 5.0 mi NNW 19.6 mph 26.5 mph N/A   Haze
9:35 AM 61.9 °F 24.4 °F 24% 30.38 in 4.0 mi NNW 24.2 mph 31.1 mph N/A   Haze
9:55 AM 62.8 °F 24.1 °F 23% 30.38 in 5.0 mi NNW 23.0 mph 32.2 mph N/A   Haze
10:15 AM 63.1 °F 23.5 °F 22% 30.38 in 4.0 mi NNW 20.7 mph 31.1 mph N/A   Haze
10:35 AM 64.0 °F 23.7 °F 22% 30.37 in 5.0 mi NNW 21.9 mph 28.8 mph N/A   Haze
11:15 AM 64.9 °F 23.9 °F 21% 30.35 in 7.0 mi NNW 18.4 mph 29.9 mph N/A   Clear
11:35 AM 65.5 °F 22.8 °F 20% 30.35 in 7.0 mi NNW 20.7 mph 31.1 mph N/A   Clear
11:55 AM 66.9 °F 22.5 °F 19% 30.33 in 5.0 mi North 23.0 mph 27.6 mph N/A   Haze
12:35 PM 68.2 °F 20.8 °F 17% 30.31 in 7.0 mi NW 19.6 mph 27.6 mph N/A   Clear
12:55 PM 69.8 °F 20.1 °F 15% 30.30 in 7.0 mi NW 19.6 mph 26.5 mph N/A   Clear
1:15 PM 70.3 °F 19.8 °F 15% 30.29 in 5.0 mi NW 19.6 mph 28.8 mph N/A   Haze
1:35 PM 70.5 °F 20.5 °F 15% 30.28 in 7.0 mi NNW 15.0 mph 27.6 mph N/A   Clear
1:55 PM 71.1 °F 19.6 °F 14% 30.26 in 5.0 mi NNW 18.4 mph 27.6 mph N/A   Haze
2:15 PM 72.0 °F 19.6 °F 14% 30.25 in 7.0 mi NNW 21.9 mph 27.6 mph N/A   Clear
2:35 PM 73.0 °F 20.8 °F 14% 30.23 in 5.0 mi NNW 18.4 mph 25.3 mph N/A   Haze
2:55 PM 73.2 °F 19.9 °F 13% 30.22 in 7.0 mi North 17.3 mph 28.8 mph N/A   Clear
3:15 PM 73.0 °F 19.2 °F 13% 30.20 in 7.0 mi NNW 11.5 mph 24.2 mph N/A   Clear
3:35 PM 74.1 °F 19.9 °F 13% 30.19 in 7.0 mi NW 18.4 mph 24.2 mph N/A   Clear
3:55 PM 74.7 °F 18.9 °F 12% 30.17 in 5.0 mi NNW 17.3 mph 24.2 mph N/A   Haze
4:15 PM 74.3 °F 18.0 °F 12% 30.16 in 7.0 mi NW 9.2 mph 23.0 mph N/A   Clear
4:35 PM 75.4 °F 18.7 °F 12% 30.15 in 5.0 mi NNW 13.8 mph 20.7 mph N/A   Haze
4:55 PM 75.6 °F 18.1 °F 12% 30.14 in 5.0 mi North 10.4 mph 16.1 mph N/A   Haze
5:15 PM 75.2 °F 17.6 °F 11% 30.14 in 7.0 mi NW 10.4 mph 17.3 mph N/A   Clear
5:35 PM 75.2 °F 17.2 °F 11% 30.13 in 7.0 mi North 9.2 mph - N/A   Clear
5:55 PM 75.7 °F 17.6 °F 11% 30.12 in 7.0 mi North 11.5 mph 17.3 mph N/A   Clear
6:15 PM 75.2 °F 17.2 °F 11% 30.12 in 5.0 mi North 8.1 mph - N/A   Haze
6:35 PM 74.8 °F 16.9 °F 11% 30.11 in 7.0 mi North 11.5 mph - N/A   Clear
6:55 PM 74.5 °F 16.9 °F 11% 30.11 in 7.0 mi NNW 9.2 mph - N/A   Clear
7:15 PM 73.9 °F 17.6 °F 12% 30.10 in 5.0 mi North 8.1 mph - N/A   Haze
7:35 PM 72.9 °F 17.8 °F 12% 30.11 in 5.0 mi North 6.9 mph - N/A   Haze
7:55 PM 71.6 °F 19.6 °F 14% 30.11 in 7.0 mi NNE 6.9 mph - N/A   Clear
8:15 PM 70.9 °F 19.9 °F 15% 30.12 in 5.0 mi NE 5.8 mph - N/A   Haze
8:35 PM 69.6 °F 21.6 °F 16% 30.12 in 7.0 mi NE 5.8 mph - N/A   Clear
8:55 PM 68.0 °F 25.9 °F 21% 30.12 in 7.0 mi ENE 3.5 mph - N/A   Clear
9:15 PM 66.0 °F 31.5 °F 28% 30.12 in 7.0 mi Calm Calm - N/A   Clear
9:35 PM 65.5 °F 29.5 °F 26% 30.13 in 7.0 mi Calm Calm - N/A   Clear
9:55 PM 64.8 °F 29.8 °F 27% 30.13 in 7.0 mi Calm Calm - N/A   Clear
10:15 PM 63.9 °F 32.0 °F 30% 30.13 in 7.0 mi Calm Calm - N/A   Clear
10:35 PM 62.2 °F 39.6 °F 43% 30.13 in 7.0 mi Calm Calm - N/A   Clear
10:55 PM 59.7 °F 36.9 °F 43% 30.14 in 7.0 mi SE 5.8 mph - N/A   Clear
11:15 PM 58.1 °F 39.9 °F 51% 30.14 in 7.0 mi SE 5.8 mph - N/A   Clear
11:35 PM 57.4 °F 40.3 °F 53% 30.13 in 7.0 mi SSE 5.8 mph - N/A   Clear
11:55 PM 57.2 °F 41.9 °F 57% 30.14 in 7.0 mi SE 4.6 mph - N/A   Clear